Flag for China Weather past 2 weeks in Hohhot, Inner Mongolia, China

Now
54 °F

Clear.


Feels Like: 54 °F
Forecast: 46 / 76 °F
Wind: 1 mph from Northeast

Location: Hohhot Airport

Current Time: Sep 20, 2014 at 4:08:08 AM

Latest Report: Sep 20, 2014 at 3:00 AM


Visibility: 4 mi

Pressure: 29.92 "Hg

Humidity: 94%

Dew point: 52 °F

Location of HohhotLocation

Historic Weather in Hohhot — Graph

°F

Hohhot temperature yesterday

Maximum temperature yesterday: 66 °F (at 4:00 PM)
Minimum temperature yesterday: 50 °F (at 6:00 AM)
Average temperature yesterday: 57 °F

Past Weeks' High & Low Weather Summary

 TemperatureHumidityPressure
High82 °F (Sep 5, 2:00 PM)100% (Sep 6, 11:00 PM)30.27 "Hg (Sep 6, 11:00 PM)
Low39 °F (Sep 15, 5:00 AM)22% (Sep 15, 1:00 PM)29.83 "Hg (Sep 5, 3:00 PM)
Average61 °F69%30.02 "Hg
* Reported Sep 5 2:00 AM — Sep 20 2:00 AM, Hohhot, Weather by CustomWeather, © 2014

Note: Actual official high and low records may vary slightly from our data, if they occured in-between our weather recording intervals... More about our weather records

Advertising

Hohhot weather history for previous 24 hours

 ConditionsComfort  
Time TempWeatherWind HumidityBarometerVisibility
2:00 AM
Sep 20
54 °FClear.3 mph94%29.92 "Hg4 mi
1:00 AM50 °FClear.3 mph100%29.92 "Hg4 mi
12:00 AM54 °FPassing clouds.3 mph88%29.95 "Hg4 mi
11:00 PM
Sep 19
54 °FFog.1 mph94%29.95 "Hg3 mi
10:00 PM55 °FFog.3 mph88%29.92 "Hg3 mi
9:00 PM55 °FFog.3 mph94%29.92 "Hg3 mi
8:00 PM59 °FFog.3 mph88%29.92 "Hg3 mi
7:00 PM59 °FFog.3 mph88%29.92 "Hg3 mi
6:00 PM63 °FFog.3 mph77%29.89 "Hg2 mi
5:00 PM66 °FFog.1 mph68%29.89 "Hg3 mi
4:00 PM66 °FFog.6 mph68%29.92 "Hg3 mi
3:00 PM64 °FFog.3 mph78%29.95 "Hg3 mi
2:00 PM64 °FFog.6 mph73%29.95 "Hg3 mi
1:00 PM63 °FFog.6 mph77%29.98 "Hg3 mi
12:00 PM61 °FScattered clouds.3 mph77%29.98 "Hg4 mi
11:00 AM59 °FScattered clouds.3 mph82%30.01 "HgN/A
10:00 AM57 °FScattered clouds.1 mph88%30.01 "HgN/A
9:00 AM55 °FScattered clouds.1 mph94%30.01 "HgN/A
8:00 AM54 °FScattered clouds.1 mph100%30.01 "HgN/A
7:00 AM52 °FScattered clouds.1 mph100%30.04 "Hg4 mi
6:00 AM50 °FPassing clouds.1 mph100%30.04 "HgN/A
5:00 AM52 °FPassing clouds.3 mph100%30.04 "HgN/A
4:00 AM52 °FPassing clouds.1 mph100%30.04 "HgN/A
Weather by CustomWeather, © 2014

See weather overviewHow to use our weather pages